This is the latest recevied weather packets stored in our database for station/object W0AKY-13. If no packets are shown the sender has not sent any weather packets the latest 10 day(s).
| Time | Temp. | Humidity | Pressure | Rain* | Wind** | Luminosity | Snow |
|---|---|---|---|---|---|---|---|
| 1777679063 | 13.89° C | 34% | 1019.6 hPa | 0 mm | - | 49 W/m² | - |
| 1777678762 | 13.89° C | 35% | 1019.4 hPa | 0 mm | - | 55 W/m² | - |
| 1777678459 | 13.89° C | 34% | 1019.4 hPa | 0 mm | - | 35 W/m² | - |
| 1777678154 | 14.44° C | 34% | 1019.6 hPa | 0 mm | - | 43 W/m² | - |
| 1777677852 | 13.89° C | 35% | 1019.4 hPa | 0 mm | - | 41 W/m² | - |
| 1777677549 | 14.44° C | 33% | 1019.5 hPa | 0 mm | - | 37 W/m² | - |
| 1777677248 | 14.44° C | 34% | 1019.4 hPa | 0 mm | - | 39 W/m² | - |
| 1777676945 | 15° C | 34% | 1019.6 hPa | 0 mm | - | 41 W/m² | - |
| 1777676644 | 15° C | 34% | 1019.4 hPa | 0 mm | - | 47 W/m² | - |
| 1777676341 | 15° C | 36% | 1019.5 hPa | 0 mm | - | 188 W/m² | - |
| 1777676039 | 15° C | 35% | 1019.1 hPa | 0 mm | - | 217 W/m² | - |
| 1777675734 | 15.56° C | 34% | 1019.5 hPa | 0 mm | - | 231 W/m² | - |
| 1777675432 | 15.56° C | 33% | 1019.3 hPa | 0 mm | - | 238 W/m² | - |
| 1777675128 | 15.56° C | 37% | 1019.5 hPa | 0 mm | - | 255 W/m² | - |
| 1777674824 | 15.56° C | 37% | 1019.3 hPa | 0 mm | - | 264 W/m² | - |
| 1777674521 | 15.56° C | 35% | 1019.4 hPa | 0 mm | - | 284 W/m² | - |
| 1777674219 | 15.56° C | 35% | 1019.1 hPa | 0 mm | - | 294 W/m² | - |
| 1777673915 | 16.11° C | 35% | 1019.2 hPa | 0 mm | - | 256 W/m² | - |
| 1777673612 | 16.11° C | 34% | 1019.1 hPa | 0 mm | - | 316 W/m² | - |
| 1777673310 | 16.11° C | 37% | 1019 hPa | 0 mm | - | 330 W/m² | - |
| 1777673007 | 16.11° C | 37% | 1019.1 hPa | 0 mm | - | 338 W/m² | - |
| 1777672703 | 16.11° C | 36% | 1018.9 hPa | 0 mm | - | 354 W/m² | - |
| 1777672399 | 16.11° C | 35% | 1019 hPa | 0 mm | - | 371 W/m² | - |
| 1777672095 | 16.11° C | 36% | 1019.1 hPa | 0 mm | - | 383 W/m² | - |
| 1777671790 | 16.11° C | 31% | 1019.1 hPa | 0 mm | - | 388 W/m² | - |
* Rain latest hour (hover to see other rain measurements)
** Current wind speed in m/s (hover to see current wind gust speed)